sat.trackr.live / text

‹ back to catalog

BEIDOU-3 M11 (C25)

NORAD 43603 · 2018-067B

PAYLOAD ACTIVE UNKNOWN

§ Identity

Operator
Country
PRC
Launch date
2018-08-24
Launch site
XICLF
Launch vehicle
Mass (kg)
RCS (m²)

Purposes: nav

External: N2YO · Heavens-Above · Gunter

§ Orbital elements

Epoch: 2026-09-19T00:17:28.428576Z

Period
773.25 min
Inclination
54.1754°
Eccentricity
0.0005362
Mean motion
1.86227188 rev/d
Perigee alt
21,513.5 km
Apogee alt
21,543.4 km
Semi-major
27,906.6 km
B*
0.0000e+0
RAAN
177.8234°
Arg perigee
26.2544°
Mean anomaly
333.7964°
Rev number
5,489

§ Raw data

BEIDOU-3 M11 (C25)1 43603U 18067B   26262.01213459 -.00000025  00000+0  00000+0 0  99972 43603  54.1754 177.8234 0005362  26.2544 333.7964  1.86227188 54899

JSON: /api/v1/satellites/43603 · /tle

For live sub-satellite position, see the globe view (requires WebGL).

§ Visibility from observer

Set your observer location to see the next 7 days of passes ≥ 10°. The values pass through the URL so the page stays shareable.

No JS? Fill the form by hand. The geolocation button needs JavaScript.